Time,TemperatureF,DewpointF,PressureIn,WindDirection,WindDirectionDegrees,WindSpeedMPH,WindSpeedGustMPH,Humidity,HourlyPrecipIn,Conditions,Clouds,dailyrainin,SoftwareType,DateUTC
2013-05-07 00:01:00,56.0,52.0,29.99,ENE,78,0.0,0.0,88,0.00,,,-99.99,,2013-05-07 07:01:00,
2013-05-07 00:11:00,56.0,52.0,29.99,ENE,78,0.0,0.0,88,0.00,,,-99.99,,2013-05-07 07:11:00,
2013-05-07 00:22:00,56.0,52.0,29.99,ENE,78,0.0,0.0,88,0.00,,,-99.99,,2013-05-07 07:22:00,
2013-05-07 00:31:00,55.0,52.0,29.99,ENE,78,0.0,0.0,89,0.00,,,-99.99,,2013-05-07 07:31:00,
2013-05-07 00:42:00,55.0,52.0,29.99,ENE,78,0.0,0.0,89,0.00,,,-99.99,,2013-05-07 07:42:00,
2013-05-07 00:52:00,55.0,52.0,29.99,ENE,78,0.0,0.0,89,0.00,,,-99.99,,2013-05-07 07:52:00,
2013-05-07 01:02:00,55.0,52.0,29.99,ENE,78,0.0,0.0,90,0.00,,,-99.99,,2013-05-07 08:02:00,
2013-05-07 01:11:00,55.0,52.0,29.99,ENE,78,0.0,0.0,90,0.00,,,-99.99,,2013-05-07 08:11:00,
2013-05-07 01:21:00,55.0,53.0,29.99,ENE,78,0.0,0.0,92,0.00,,,-99.99,,2013-05-07 08:21:00,
2013-05-07 01:31:00,54.0,52.0,29.99,ENE,78,0.0,0.0,94,0.00,,,-99.99,,2013-05-07 08:31:00,
2013-05-07 01:41:00,54.0,52.0,29.99,ENE,78,0.0,0.0,94,0.00,,,-99.99,,2013-05-07 08:41:00,
2013-05-07 01:52:00,54.0,51.0,29.98,ENE,78,0.0,0.0,91,0.00,,,-99.99,,2013-05-07 08:52:00,
2013-05-07 02:01:00,54.0,51.0,29.98,ENE,78,0.0,1.0,91,0.00,,,-99.99,,2013-05-07 09:01:00,
2013-05-07 02:11:00,54.0,51.0,29.98,ENE,78,0.0,1.0,91,0.00,,,-99.99,,2013-05-07 09:11:00,
2013-05-07 02:22:00,54.0,51.0,29.98,ENE,77,2.0,3.0,90,0.00,,,-99.99,,2013-05-07 09:22:00,
2013-05-07 02:33:00,55.0,52.0,29.97,ENE,77,0.0,0.0,90,0.00,,,-99.99,,2013-05-07 09:33:00,
2013-05-07 02:42:00,55.0,52.0,29.97,ENE,77,0.0,0.0,90,0.00,,,-99.99,,2013-05-07 09:42:00,
2013-05-07 02:52:00,54.0,51.0,29.97,ENE,77,0.0,1.0,90,0.00,,,-99.99,,2013-05-07 09:52:00,
2013-05-07 03:02:00,54.0,51.0,29.97,ENE,77,0.0,0.0,90,0.00,,,-99.99,,2013-05-07 10:02:00,
2013-05-07 03:12:00,54.0,51.0,29.97,ENE,77,0.0,0.0,90,0.00,,,-99.99,,2013-05-07 10:12:00,
2013-05-07 03:22:00,54.0,52.0,29.97,ENE,76,0.0,0.0,92,0.00,,,-99.99,,2013-05-07 10:22:00,
2013-05-07 03:32:00,54.0,52.0,29.97,ENE,76,0.0,0.0,92,0.00,,,-99.99,,2013-05-07 10:32:00,
2013-05-07 03:42:00,54.0,52.0,29.97,ENE,76,0.0,0.0,93,0.00,,,-99.99,,2013-05-07 10:42:00,
2013-05-07 03:52:00,54.0,52.0,29.97,ENE,76,0.0,0.0,93,0.00,,,-99.99,,2013-05-07 10:52:00,
2013-05-07 04:02:00,54.0,52.0,29.97,ENE,77,0.0,0.0,92,0.00,,,-99.99,,2013-05-07 11:02:00,
2013-05-07 04:11:00,54.0,52.0,29.97,ENE,77,0.0,0.0,92,0.00,,,-99.99,,2013-05-07 11:11:00,
2013-05-07 04:21:00,54.0,51.0,29.96,NNE,28,2.0,4.0,91,0.00,,,-99.99,,2013-05-07 11:21:00,
2013-05-07 04:32:00,54.0,51.0,29.97,NNW,345,0.0,4.0,90,0.00,,,-99.99,,2013-05-07 11:32:00,
2013-05-07 04:42:00,54.0,51.0,29.97,NNW,345,0.0,4.0,90,0.00,,,-99.99,,2013-05-07 11:42:00,
2013-05-07 04:52:00,54.0,51.0,29.96,NNW,346,0.0,3.0,89,0.00,,,-99.99,,2013-05-07 11:52:00,
2013-05-07 05:01:00,54.0,51.0,29.96,NNW,346,1.0,4.0,90,0.00,,,-99.99,,2013-05-07 12:01:00,
2013-05-07 05:11:00,54.0,51.0,29.96,NNW,346,1.0,4.0,90,0.00,,,-99.99,,2013-05-07 12:11:00,
2013-05-07 05:21:00,54.0,51.0,29.96,NNW,346,0.0,1.0,88,0.00,,,-99.99,,2013-05-07 12:21:00,
2013-05-07 05:32:00,55.0,52.0,29.96,NNW,346,0.0,0.0,88,0.00,,,-99.99,,2013-05-07 12:32:00,
2013-05-07 05:41:00,55.0,52.0,29.96,NNW,346,0.0,0.0,88,0.00,,,-99.99,,2013-05-07 12:41:00,
2013-05-07 05:52:00,54.0,51.0,29.96,NNW,346,0.0,0.0,89,0.00,,,-99.99,,2013-05-07 12:52:00,
2013-05-07 06:01:00,54.0,51.0,29.96,NNW,346,0.0,0.0,90,0.00,,,-99.99,,2013-05-07 13:01:00,
2013-05-07 06:11:00,54.0,51.0,29.96,NNW,346,0.0,0.0,90,0.00,,,-99.99,,2013-05-07 13:11:00,
2013-05-07 06:21:00,53.0,51.0,29.97,NNW,346,0.0,0.0,94,0.00,,,0.00,,2013-05-07 13:21:00,
2013-05-07 06:32:00,53.0,51.0,29.97,NNW,346,1.0,3.0,94,0.00,,,0.00,,2013-05-07 13:32:00,
2013-05-07 06:42:00,53.0,51.0,29.97,NNW,346,1.0,3.0,94,0.00,,,0.00,,2013-05-07 13:42:00,
2013-05-07 06:52:00,54.0,51.0,29.97,NNW,347,0.0,0.0,90,0.00,,,0.00,,2013-05-07 13:52:00,
2013-05-07 07:01:00,54.0,51.0,29.97,NNW,347,0.0,0.0,88,0.00,,,0.00,,2013-05-07 14:01:00,
2013-05-07 07:11:00,54.0,51.0,29.97,NNW,347,0.0,0.0,88,0.00,,,0.00,,2013-05-07 14:11:00,
2013-05-07 07:21:00,54.0,51.0,29.98,NNW,347,0.0,3.0,90,0.00,,,0.00,,2013-05-07 14:21:00,
2013-05-07 07:31:00,54.0,51.0,29.98,NNW,347,0.0,0.0,90,0.00,,,0.00,,2013-05-07 14:31:00,
2013-05-07 07:42:00,54.0,51.0,29.98,NNW,347,0.0,0.0,90,0.00,,,0.00,,2013-05-07 14:42:00,
2013-05-07 07:52:00,55.0,52.0,29.98,NNE,14,0.0,3.0,88,0.00,,,0.00,,2013-05-07 14:52:00,
2013-05-07 08:01:00,56.0,52.0,29.98,NNE,15,0.0,0.0,85,0.00,,,0.00,,2013-05-07 15:01:00,
2013-05-07 08:11:00,56.0,52.0,29.98,NNE,15,0.0,0.0,85,0.00,,,0.00,,2013-05-07 15:11:00,
2013-05-07 08:21:00,57.0,51.0,29.99,North,11,0.0,1.0,81,0.00,,,0.00,,2013-05-07 15:21:00,
2013-05-07 08:33:00,58.0,51.0,29.99,North,360,0.0,1.0,77,0.00,,,0.00,,2013-05-07 15:33:00,
2013-05-07 08:42:00,58.0,51.0,29.99,North,360,0.0,1.0,77,0.00,,,0.00,,2013-05-07 15:42:00,
2013-05-07 08:53:00,58.0,51.0,29.99,North,360,0.0,1.0,77,0.00,,,0.00,,2013-05-07 15:53:00,
2013-05-07 09:02:00,60.0,51.0,30.00,South,184,0.0,1.0,73,0.00,,,0.00,,2013-05-07 16:02:00,
2013-05-07 09:12:00,60.0,51.0,30.00,South,184,0.0,1.0,73,0.00,,,0.00,,2013-05-07 16:12:00,
2013-05-07 09:22:00,61.0,51.0,30.00,SSW,198,1.0,4.0,70,0.00,,,0.00,,2013-05-07 16:22:00,
2013-05-07 09:32:00,63.0,51.0,30.00,ESE,111,0.0,1.0,66,0.00,,,0.00,,2013-05-07 16:32:00,
2013-05-07 09:41:00,63.0,51.0,30.00,ESE,111,0.0,1.0,66,0.00,,,0.00,,2013-05-07 16:41:00,
2013-05-07 09:52:00,63.0,51.0,30.00,ESE,111,0.0,1.0,66,0.00,,,0.00,,2013-05-07 16:52:00,
2013-05-07 10:01:00,61.0,50.0,30.00,East,84,1.0,3.0,68,0.00,,,0.00,,2013-05-07 17:01:00,
2013-05-07 10:12:00,61.0,50.0,30.00,East,84,1.0,3.0,68,0.00,,,0.00,,2013-05-07 17:12:00,
2013-05-07 10:21:00,64.0,51.0,30.01,SSW,194,1.0,5.0,62,0.00,,,0.00,,2013-05-07 17:21:00,
2013-05-07 10:31:00,66.0,53.0,30.01,SSW,206,2.0,7.0,63,0.00,,,0.00,,2013-05-07 17:31:00,
2013-05-07 10:41:00,66.0,53.0,30.01,SSW,206,2.0,7.0,63,0.00,,,0.00,,2013-05-07 17:41:00,
2013-05-07 10:52:00,66.0,52.0,30.01,SW,234,2.0,6.0,60,0.00,,,0.00,,2013-05-07 17:52:00,
2013-05-07 11:01:00,64.0,51.0,30.01,SSW,209,1.0,6.0,63,0.00,,,0.00,,2013-05-07 18:01:00,
2013-05-07 11:11:00,64.0,51.0,30.01,SSW,209,1.0,6.0,63,0.00,,,0.00,,2013-05-07 18:11:00,
2013-05-07 11:21:00,63.0,50.0,30.01,SW,232,2.0,9.0,63,0.00,,,0.00,,2013-05-07 18:21:00,
2013-05-07 11:31:00,63.0,50.0,30.01,West,267,3.0,9.0,62,0.00,,,0.00,,2013-05-07 18:31:00,
2013-05-07 11:41:00,63.0,50.0,30.01,West,267,3.0,9.0,62,0.00,,,0.00,,2013-05-07 18:41:00,
2013-05-07 11:52:00,63.0,50.0,30.01,SW,225,0.0,7.0,62,0.00,,,0.00,,2013-05-07 18:52:00,
2013-05-07 12:01:00,64.0,51.0,30.01,SW,229,4.0,7.0,62,0.00,,,0.00,,2013-05-07 19:01:00,
2013-05-07 12:11:00,64.0,51.0,30.01,SW,229,4.0,7.0,62,0.00,,,0.00,,2013-05-07 19:11:00,
2013-05-07 12:21:00,64.0,49.0,30.01,SSW,193,3.0,8.0,59,0.00,,,0.00,,2013-05-07 19:21:00,
2013-05-07 12:31:00,66.0,50.0,30.01,WSW,257,4.0,9.0,56,0.00,,,0.00,,2013-05-07 19:31:00,
2013-05-07 12:41:00,66.0,50.0,30.01,WSW,257,4.0,9.0,56,0.00,,,0.00,,2013-05-07 19:41:00,
2013-05-07 12:52:00,67.0,49.0,30.00,SW,234,2.0,10.0,53,0.00,,,0.00,,2013-05-07 19:52:00,
2013-05-07 13:01:00,67.0,49.0,30.00,WSW,245,4.0,11.0,53,0.00,,,0.00,,2013-05-07 20:01:00,
2013-05-07 13:11:00,67.0,49.0,30.00,WSW,245,4.0,11.0,53,0.00,,,0.00,,2013-05-07 20:11:00,
2013-05-07 13:21:00,67.0,51.0,30.00,SW,232,7.0,13.0,56,0.00,,,0.00,,2013-05-07 20:21:00,
2013-05-07 13:32:00,66.0,51.0,30.00,SW,230,7.0,14.0,58,0.00,,,0.00,,2013-05-07 20:32:00,
2013-05-07 13:41:00,66.0,51.0,30.00,SW,230,7.0,14.0,58,0.00,,,0.00,,2013-05-07 20:41:00,
2013-05-07 13:52:00,67.0,48.0,30.00,WSW,252,9.0,16.0,51,0.00,,,0.00,,2013-05-07 20:52:00,
2013-05-07 14:01:00,67.0,49.0,30.00,WSW,252,7.0,16.0,52,0.00,,,0.00,,2013-05-07 21:01:00,
2013-05-07 14:11:00,67.0,49.0,30.00,WSW,252,7.0,16.0,52,0.00,,,0.00,,2013-05-07 21:11:00,
2013-05-07 14:21:00,67.0,49.0,30.00,SW,236,4.0,9.0,52,0.00,,,0.00,,2013-05-07 21:21:00,
2013-05-07 14:32:00,67.0,50.0,30.00,WSW,253,5.0,12.0,54,0.00,,,0.00,,2013-05-07 21:32:00,
2013-05-07 14:42:00,67.0,50.0,30.00,WSW,253,5.0,12.0,54,0.00,,,0.00,,2013-05-07 21:42:00,
2013-05-07 14:53:00,66.0,50.0,30.00,West,261,4.0,11.0,56,0.00,,,0.00,,2013-05-07 21:53:00,
2013-05-07 15:02:00,67.0,52.0,29.99,SSW,192,2.0,9.0,58,0.00,,,0.00,,2013-05-07 22:02:00,
2013-05-07 15:13:00,67.0,52.0,29.99,SSW,192,2.0,9.0,58,0.00,,,0.00,,2013-05-07 22:13:00,
2013-05-07 15:22:00,66.0,53.0,29.99,SSW,213,2.0,10.0,62,0.00,,,0.00,,2013-05-07 22:22:00,
2013-05-07 15:32:00,66.0,52.0,29.99,SSW,208,0.0,7.0,60,0.00,,,0.00,,2013-05-07 22:32:00,
2013-05-07 15:42:00,66.0,52.0,29.99,SSW,208,0.0,7.0,60,0.00,,,0.00,,2013-05-07 22:42:00,
2013-05-07 15:52:00,67.0,52.0,29.97,SSE,150,2.0,6.0,58,0.00,,,0.00,,2013-05-07 22:52:00,
2013-05-07 16:01:00,67.0,52.0,29.97,ESE,114,2.0,5.0,58,0.00,,,0.00,,2013-05-07 23:01:00,
2013-05-07 16:11:00,67.0,52.0,29.97,ESE,114,2.0,5.0,58,0.00,,,0.00,,2013-05-07 23:11:00,
2013-05-07 16:21:00,67.0,51.0,29.97,SSW,213,5.0,10.0,56,0.00,,,0.00,,2013-05-07 23:21:00,
2013-05-07 16:32:00,66.0,51.0,29.97,South,186,4.0,15.0,59,0.00,,,0.00,,2013-05-07 23:32:00,
2013-05-07 16:41:00,65.0,53.0,29.97,SW,222,4.0,15.0,64,0.00,,,0.00,,2013-05-07 23:41:00,
2013-05-07 16:52:00,65.0,53.0,29.97,SW,222,4.0,15.0,64,0.00,,,0.00,,2013-05-07 23:52:00,
2013-05-07 17:01:00,66.0,53.0,29.97,West,259,4.0,12.0,63,0.00,,,0.00,,2013-05-08 00:01:00,
2013-05-07 17:11:00,66.0,53.0,29.97,West,259,4.0,12.0,63,0.00,,,0.00,,2013-05-08 00:11:00,
2013-05-07 17:21:00,65.0,52.0,29.98,WSW,250,4.0,13.0,62,0.00,,,0.00,,2013-05-08 00:21:00,
2013-05-07 17:32:00,65.0,50.0,29.98,WSW,257,8.0,14.0,59,0.00,,,0.00,,2013-05-08 00:32:00,
2013-05-07 17:41:00,65.0,50.0,29.98,WSW,257,8.0,14.0,59,0.00,,,0.00,,2013-05-08 00:41:00,
2013-05-07 17:52:00,65.0,51.0,29.98,WSW,258,4.0,10.0,61,0.00,,,0.00,,2013-05-08 00:52:00,
2013-05-07 18:01:00,65.0,50.0,29.98,WSW,237,5.0,10.0,59,0.00,,,0.00,,2013-05-08 01:01:00,
2013-05-07 18:11:00,65.0,50.0,29.98,WSW,237,5.0,10.0,59,0.00,,,0.00,,2013-05-08 01:11:00,
2013-05-07 18:21:00,65.0,47.0,29.98,SW,233,4.0,11.0,52,0.00,,,0.00,,2013-05-08 01:21:00,
2013-05-07 18:31:00,63.0,48.0,29.98,WSW,240,4.0,13.0,58,0.00,,,0.00,,2013-05-08 01:31:00,
2013-05-07 18:42:00,63.0,48.0,29.98,WSW,240,4.0,13.0,58,0.00,,,0.00,,2013-05-08 01:42:00,
2013-05-07 18:52:00,63.0,49.0,29.98,SSW,202,0.0,5.0,60,0.00,,,0.00,,2013-05-08 01:52:00,
2013-05-07 19:01:00,62.0,49.0,29.98,South,186,4.0,6.0,63,0.00,,,0.00,,2013-05-08 02:01:00,
2013-05-07 19:11:00,62.0,49.0,29.98,South,186,4.0,6.0,63,0.00,,,0.00,,2013-05-08 02:11:00,
2013-05-07 19:21:00,60.0,50.0,29.99,SSW,207,2.0,7.0,70,0.00,,,0.00,,2013-05-08 02:21:00,
2013-05-07 19:31:00,60.0,50.0,29.99,SSW,197,0.0,6.0,70,0.00,,,0.00,,2013-05-08 02:31:00,
2013-05-07 19:42:00,60.0,50.0,29.99,SSW,197,0.0,6.0,70,0.00,,,0.00,,2013-05-08 02:42:00,
2013-05-07 19:52:00,60.0,51.0,30.00,SSW,198,0.0,2.0,72,0.00,,,0.00,,2013-05-08 02:52:00,
2013-05-07 20:01:00,59.0,50.0,30.00,SSW,198,0.0,1.0,73,0.00,,,0.00,,2013-05-08 03:01:00,
2013-05-07 20:11:00,59.0,50.0,30.00,SSW,198,0.0,1.0,73,0.00,,,0.00,,2013-05-08 03:11:00,
2013-05-07 20:21:00,59.0,51.0,30.00,SSW,199,0.0,3.0,75,0.00,,,0.00,,2013-05-08 03:21:00,
2013-05-07 20:32:00,59.0,51.0,30.00,SSW,199,0.0,5.0,74,0.00,,,0.00,,2013-05-08 03:32:00,
2013-05-07 20:43:00,59.0,51.0,30.00,SSW,199,0.0,5.0,74,0.00,,,0.00,,2013-05-08 03:43:00,
2013-05-07 20:52:00,59.0,52.0,30.00,South,188,2.0,4.0,77,0.00,,,0.00,,2013-05-08 03:52:00,
2013-05-07 21:02:00,58.0,51.0,30.00,South,190,0.0,4.0,78,0.00,,,0.00,,2013-05-08 04:02:00,
2013-05-07 21:12:00,58.0,51.0,30.00,South,190,0.0,4.0,78,0.00,,,0.00,,2013-05-08 04:12:00,
2013-05-07 21:22:00,59.0,53.0,30.01,South,190,0.0,2.0,80,0.00,,,0.00,,2013-05-08 04:22:00,
2013-05-07 21:32:00,59.0,52.0,30.01,South,190,0.0,0.0,79,0.00,,,0.00,,2013-05-08 04:32:00,
2013-05-07 21:42:00,59.0,52.0,30.01,South,190,0.0,0.0,79,0.00,,,0.00,,2013-05-08 04:42:00,
2013-05-07 21:53:00,58.0,52.0,30.01,South,190,0.0,0.0,79,0.00,,,0.00,,2013-05-08 04:53:00,
2013-05-07 22:02:00,58.0,52.0,30.01,South,190,0.0,0.0,79,0.00,,,0.00,,2013-05-08 05:02:00,
2013-05-07 22:12:00,58.0,52.0,30.01,South,190,0.0,0.0,79,0.00,,,0.00,,2013-05-08 05:12:00,
2013-05-07 22:22:00,58.0,52.0,30.02,South,190,0.0,0.0,81,0.00,,,0.00,,2013-05-08 05:22:00,
2013-05-07 22:32:00,57.0,52.0,30.02,South,190,0.0,0.0,82,0.00,,,0.00,,2013-05-08 05:32:00,
2013-05-07 22:42:00,57.0,52.0,30.02,South,190,0.0,0.0,82,0.00,,,0.00,,2013-05-08 05:42:00,
2013-05-07 22:52:00,56.0,51.0,30.02,South,190,0.0,0.0,84,0.00,,,0.00,,2013-05-08 05:52:00,
2013-05-07 23:01:00,57.0,52.0,30.02,South,190,0.0,0.0,83,0.00,,,0.00,,2013-05-08 06:01:00,
2013-05-07 23:11:00,57.0,52.0,30.02,South,190,0.0,0.0,83,0.00,,,0.00,,2013-05-08 06:11:00,
2013-05-07 23:21:00,55.0,51.0,30.02,South,190,0.0,2.0,86,0.00,,,0.00,,2013-05-08 06:21:00,
2013-05-07 23:31:00,55.0,51.0,30.03,South,190,0.0,0.0,86,0.00,,,0.00,,2013-05-08 06:31:00,
2013-05-07 23:41:00,55.0,51.0,30.03,South,190,0.0,0.0,86,0.00,,,0.00,,2013-05-08 06:41:00,
2013-05-07 23:52:00,56.0,52.0,30.03,South,190,0.0,0.0,85,0.00,,,0.00,,2013-05-08 06:52:00,